Weather History for Westfield, MA

Change the Weather History Date:

Friday, January 27, 2012

  Actual Average Record
Temperature  
Mean Temperature 38 °F -  
Max Temperature 43 °F 29 °F 64 °F (1974)
Min Temperature 33 °F 12 °F -5 °F (2005)
Degree Days  
Heating Degree Days 27    
Moisture  
Dew Point 33 °F    
Average Humidity 87    
Maximum Humidity 100    
Minimum Humidity 60    
Precipitation  
Precipitation 0.84 in - - ()
Sea Level Pressure  
Sea Level Pressure 29.58 in    
Wind  
Wind Speed 7 mph (North)    
Max Wind Speed 17 mph    
Max Gust Speed 31 mph    
Visibility 6 miles    
Events Rain    
Averages and records for this station are not official NWS values.
T = Trace of Precipitation, MM = Missing Value Source: NWS Daily Summary

Daily Weather History Graph

Daily Weather History Graph

Search for Another Location

Airport:

Trip Planner

Search our weather history database for the weather conditions in past years. The results will help you decide how hot, cold, wet, or windy it might be!

Date:

Astronomy

Jan. 27, 2012 Rise Set
Actual Time 7:09 AM EST 4:58 PM EST
Civil Twilight 6:39 AM EST 5:28 PM EST
Nautical Twilight 6:05 AM EST 6:02 PM EST
Astronomical Twilight 5:32 AM EST 6:35 PM EST
Moon 8:56 AM EST (1/27) 9:53 PM EST (1/27)
Length of Visible Light 10h 49m
Length of Day
9h 49m
Waxing Crescent, 19% of the Moon is Illuminated
Jan 27
Waxing Crescent
Jan 30
First Quarter
Feb 7
Full
Feb 14
Last Quarter
Feb 21
New

Hourly Weather History & Observations

Time (EST) Temp. Windchill Dew Point Humidity Pressure Visibility Wind Dir Wind Speed Gust Speed Precip Events Conditions
12:53 AM 34.0 °F 28.8 °F 32.0 °F 92% 29.90 in 6.0 mi NNE 5.8 mph - 0.03 in Rain Light Rain
1:32 AM 33.8 °F 29.6 °F 32.0 °F 93% 29.85 in 2.5 mi NNE 4.6 mph - 0.03 in Rain Rain
1:46 AM 33.8 °F 29.6 °F 32.0 °F 93% 29.86 in 3.0 mi North 4.6 mph - 0.05 in Rain Rain
1:53 AM 34.0 °F 28.8 °F 32.0 °F 92% 29.86 in 3.0 mi NNE 5.8 mph - 0.06 in Rain Rain
2:53 AM 34.0 °F 27.2 °F 32.0 °F 92% 29.83 in 4.0 mi North 8.1 mph - 0.08 in Rain Rain
3:05 AM 33.8 °F 27.7 °F 30.2 °F 87% 29.80 in 3.0 mi North 6.9 mph - 0.03 in Rain Rain
3:53 AM 34.0 °F 27.2 °F 32.0 °F 92% 29.79 in 6.0 mi NNE 8.1 mph - 0.11 in Rain Light Rain
4:11 AM 33.8 °F 27.7 °F 30.2 °F 87% 29.76 in 5.0 mi NNE 6.9 mph - 0.03 in Rain Rain
4:51 AM 33.8 °F 27.0 °F 32.0 °F 93% 29.73 in 9.0 mi NNE 8.1 mph - N/A Rain Light Rain
4:53 AM 34.0 °F 28.0 °F 32.0 °F 92% 29.75 in 10.0 mi NNE 6.9 mph - 0.08 in Rain Light Rain
5:07 AM 33.8 °F 27.0 °F 32.0 °F 93% 29.73 in 8.0 mi NNE 8.1 mph - N/A Rain Light Rain
5:30 AM 33.8 °F 27.7 °F 32.0 °F 93% 29.71 in 3.0 mi NNE 6.9 mph - 0.01 in   Overcast
5:53 AM 34.0 °F 26.6 °F 32.0 °F 92% 29.71 in 4.0 mi NNE 9.2 mph - 0.02 in   Overcast
6:53 AM 34.0 °F 27.2 °F 32.0 °F 92% 29.67 in 3.0 mi NNE 8.1 mph - 0.05 in Rain Heavy Rain
7:00 AM 33.8 °F 26.4 °F 32.0 °F 93% 29.65 in 4.0 mi North 9.2 mph - 0.01 in Rain Light Rain
7:27 AM 33.8 °F 27.7 °F 32.0 °F 93% 29.64 in 6.0 mi North 6.9 mph - N/A Rain Light Rain
7:53 AM 34.0 °F 26.6 °F 32.0 °F 92% 29.62 in 6.0 mi NNE 9.2 mph - 0.04 in Rain Light Rain
8:22 AM 33.8 °F 27.0 °F 33.8 °F 100% 29.59 in 1.8 mi NNE 8.1 mph - 0.12 in Rain Heavy Rain
8:34 AM 35.6 °F 30.7 °F 33.8 °F 93% 29.59 in 3.0 mi North 5.8 mph - 0.17 in Rain Rain
8:53 AM 35.1 °F 30.1 °F 33.1 °F 92% 29.59 in 7.0 mi North 5.8 mph - 0.18 in Rain Light Rain
9:28 AM 35.6 °F 29.9 °F 33.8 °F 93% 29.55 in 8.0 mi North 6.9 mph - 0.01 in Rain Light Rain
9:53 AM 35.1 °F 29.3 °F 33.1 °F 92% 29.55 in 6.0 mi North 6.9 mph - 0.04 in Rain Light Rain
10:53 AM 36.0 °F 29.0 °F 34.0 °F 93% 29.51 in 10.0 mi North 9.2 mph - 0.04 in Rain Light Rain
11:21 AM 35.6 °F 29.2 °F 33.8 °F 93% 29.47 in 10.0 mi North 8.1 mph - 0.02 in Rain Light Rain
11:48 AM 37.4 °F 33.8 °F 35.6 °F 93% 29.45 in 3.0 mi North 4.6 mph - 0.04 in Rain Light Rain
11:53 AM 37.0 °F 31.6 °F 35.1 °F 93% 29.44 in 3.0 mi NE 6.9 mph - 0.05 in Rain Rain
12:53 PM 37.0 °F 31.6 °F 35.1 °F 93% 29.39 in 3.0 mi North 6.9 mph - 0.05 in   Overcast
1:50 PM 37.4 °F 33.8 °F 35.6 °F 93% 29.37 in 10.0 mi North 4.6 mph - N/A   Overcast
1:53 PM 37.0 °F 32.4 °F 35.1 °F 93% 29.38 in 10.0 mi North 5.8 mph - N/A   Overcast
2:00 PM 37.4 °F 33.8 °F 35.6 °F 93% 29.37 in 5.0 mi North 4.6 mph - N/A   Overcast
2:53 PM 37.9 °F 33.5 °F 36.0 °F 93% 29.34 in 5.0 mi North 5.8 mph - N/A   Overcast
3:53 PM 37.9 °F 34.4 °F 36.0 °F 93% 29.34 in 8.0 mi North 4.6 mph - N/A   Overcast
4:02 PM 37.4 °F 33.8 °F 35.6 °F 93% 29.32 in 2.0 mi North 4.6 mph - N/A   Overcast
4:53 PM 37.9 °F 32.1 °F 35.1 °F 89% 29.39 in 2.0 mi NW 8.1 mph 24.2 mph 0.01 in Rain Light Rain
5:00 PM 37.4 °F 32.8 °F 35.6 °F 93% 29.37 in 9.0 mi North 5.8 mph - 0.00 in Rain Light Rain
5:05 PM 37.4 °F - 35.6 °F 93% 29.36 in 10.0 mi Calm Calm - 0.00 in   Overcast
5:53 PM 43.0 °F 37.7 °F 35.1 °F 74% 29.42 in 10.0 mi NNW 9.2 mph 18.4 mph 0.00 in   Overcast
6:15 PM 42.8 °F 34.8 °F 33.8 °F 70% 29.42 in 10.0 mi NW 17.3 mph 23.0 mph N/A   Overcast
6:53 PM 42.1 °F 38.4 °F 32.0 °F 67% 29.47 in 10.0 mi NNW 5.8 mph 23.0 mph N/A   Overcast
7:19 PM 42.8 °F 39.3 °F 30.2 °F 61% 29.48 in 10.0 mi Variable 5.8 mph 21.9 mph N/A   Overcast
7:53 PM 42.1 °F 36.1 °F 30.9 °F 65% 29.55 in 10.0 mi WNW 10.4 mph 17.3 mph N/A   Overcast
8:53 PM 41.0 °F 33.9 °F 30.0 °F 65% 29.57 in 10.0 mi NW 12.7 mph 28.8 mph N/A   Overcast
9:53 PM 41.0 °F 32.5 °F 28.9 °F 62% 29.62 in 10.0 mi WNW 17.3 mph 26.5 mph N/A   Overcast
10:53 PM 41.0 °F 33.5 °F 28.0 °F 60% 29.68 in 10.0 mi WNW 13.8 mph 23.0 mph N/A   Mostly Cloudy
11:53 PM 39.9 °F 32.1 °F 28.9 °F 65% 29.75 in 10.0 mi WNW 13.8 mph 31.1 mph N/A   Overcast